QPF
0.01 0.01 0.01 0.01 0.00 0.00 0.00 0.00 0.00 0.00 0.00 0.00 0.00 0.00 0.00 0.00 0.00 0.00 0.00 0.00 0.00 0.00 0.00 0.00 0.00 0.00 0.00 0.00 0.00 0.00 0.00 0.00 0.00 0.00 0.00 0.00 0.00 0.00 0.00 0.01 0.00 0.00 0.00
0.01 0.01 0.00 0.00 0.00 0.00 0.00 0.00 0.00 0.00 0.00 0.00 0.00 0.00 0.00 0.00 0.00 0.00 0.00 0.01 0.01 0.00 0.00 0.00 0.00 0.00 0.00 0.00 0.00 0.00 0.00 0.00 0.00 0.00 0.00 0.00 0.00 0.00 0.00 0.02 0.01 0.04 0.00
0.00 0.00 0.00 0.00 0.01 0.01 0.00 0.00 0.00 0.00 0.00 0.00 0.00 0.00 0.00 0.00 0.00 0.00 0.01 0.01 0.04 0.04 0.02 0.02 0.00 0.00 0.00 0.00 0.00 0.00 0.00 0.00 0.00 0.00 0.00 0.00 0.03 0.01 0.00 0.01 0.02 0.02 0.02
0.00 0.00 0.01 0.00 0.01 0.01 0.00 0.01 0.00 0.00 0.00 0.00 0.00 0.00 0.00 0.00 0.00 0.00 0.00 0.00 0.01 0.01 0.02 0.04 0.02 0.00 0.00 0.00 0.00 0.00 0.00 0.00 0.00 0.00 0.00 0.00 0.00 0.00 0.00 0.03 0.01 0.01 0.02
0.00 0.00 0.00 0.00 0.00 0.00 0.00 0.00 0.00 0.00 0.00 0.00 0.00 0.00 0.00 0.00 0.00 0.00 0.00 0.00 0.00 0.00 0.00 0.01 0.02 0.00 0.00 0.00 0.00 0.00 0.00 0.00 0.00 0.00 0.00 0.00 0.00 0.00 0.00 0.01 0.00 0.00 0.02
0.00 0.00 0.00 0.00 0.00 0.00 0.00 0.00 0.00 0.00 0.00 0.00 0.00 0.00 0.00 0.00 0.00 0.00 0.00 0.00 0.00 0.00 0.00 0.00 0.00 0.00 0.00 0.00 0.00 0.00 0.00 0.00 0.00 0.00 0.00 0.00 0.00 0.00 0.00 0.00 0.01 0.03 0.05
0.00 0.00 0.00 0.00 0.00 0.00 0.00 0.00 0.00 0.00 0.00 0.00 0.00 0.00 0.00 0.00 0.00 0.00 0.00 0.00 0.00 0.00 0.00 0.00 0.00 0.00 0.00 0.00 0.02 0.01 0.00 0.00 0.00 0.00 0.00 0.00 0.00 0.00 0.00 0.01 0.01 0.02 0.03
0.00 0.00 0.00 0.00 0.00 0.00 0.00 0.00 0.00 0.00 0.00 0.00 0.00 0.00 0.00 0.00 0.00 0.00 0.00 0.00 0.00 0.00 0.00 0.00 0.00 0.00 0.00 0.00 0.00 0.00 0.00 0.00 0.00 0.00 0.00 0.00 0.00 0.00 0.00 0.01 0.01 0.00 0.00
0.00 0.00 0.00 0.00 0.00 0.00 0.00 0.00 0.00 0.00 0.00 0.00 0.00 0.00 0.00 0.00 0.00 0.00 0.00 0.00 0.00 0.00 0.00 0.00 0.00 0.00 0.00 0.00 0.00 0.00 0.00 0.00 0.00 0.00 0.00 0.00 0.00 0.00 0.00 0.00 0.01 0.01 0.02
0.00 0.00 0.00 0.00 0.00 0.00 0.00 0.00 0.00 0.00 0.00 0.00 0.00 0.00 0.00 0.00 0.00 0.00 0.00 0.00 0.00 0.00 0.00 0.00 0.00 0.00 0.00 0.00 0.00 0.00 0.00 0.00 0.01 0.03 0.03 0.01 0.00 0.00 0.00 0.00 0.00 0.01 0.02
0.00 0.00 0.00 0.00 0.00 0.00 0.00 0.00 0.00 0.00 0.00 0.00 0.00 0.00 0.00 0.00 0.00 0.00 0.00 0.00 0.00 0.00 0.00 0.00 0.00 0.00 0.00 0.00 0.00 0.00 0.00 0.00 0.00 0.00 0.01 0.04 0.01 0.00 0.00 0.00 0.01 0.01 0.00
0.00 0.00 0.00 0.00 0.00 0.00 0.00 0.00 0.00 0.00 0.00 0.00 0.00 0.00 0.00 0.00 0.00 0.00 0.00 0.00 0.00 0.00 0.00 0.00 0.00 0.00 0.00 0.00 0.00 0.00 0.00 0.00 0.00 0.00 0.00 0.00 0.00 0.00 0.00 0.00 0.00 0.01 0.01
0.00 0.00 0.00 0.00 0.00 0.00 0.00 0.00 0.00 0.00 0.00 0.00 0.00 0.00 0.00 0.00 0.00 0.00 0.00 0.00 0.00 0.00 0.00 0.00 0.00 0.00 0.00 0.00 0.00 0.00 0.00 0.00 0.00 0.00 0.00 0.00 0.00 0.00 0.01 0.01 0.01 0.01 0.01
0.00 0.00 0.00 0.00 0.00 0.00 0.00 0.00 0.00 0.00 0.00 0.00 0.00 0.00 0.00 0.00 0.00 0.00 0.00 0.00 0.00 0.00 0.00 0.00 0.00 0.00 0.00 0.00 0.00 0.00 0.00 0.00 0.00 0.00 0.00 0.00 0.00 0.00 0.00 0.02 0.02 0.02 0.01
0.00 0.00 0.00 0.00 0.00 0.00 0.00 0.00 0.00 0.00 0.00 0.00 0.00 0.00 0.00 0.00 0.00 0.00 0.00 0.00 0.00 0.00 0.00 0.00 0.00 0.00 0.00 0.00 0.00 0.00 0.00 0.00 0.00 0.00 0.00 0.00 0.00 0.00 0.00 0.00 0.00 0.01 0.02
0.00 0.00 0.00 0.00 0.00 0.00 0.00 0.00 0.00 0.00 0.00 0.00 0.00 0.00 0.00 0.00 0.00 0.00 0.00 0.00 0.00 0.00 0.00 0.00 0.00 0.00 0.00 0.00 0.00 0.00 0.00 0.00 0.00 0.00 0.00 0.00 0.00 0.00 0.00 0.00 0.00 0.01 0.05
0.00 0.00 0.00 0.00 0.00 0.00 0.00 0.00 0.00 0.00 0.00 0.00 0.00 0.00 0.00 0.00 0.00 0.00 0.00 0.00 0.00 0.00 0.00 0.00 0.00 0.00 0.00 0.00 0.00 0.00 0.00 0.00 0.00 0.00 0.00 0.00 0.00 0.00 0.00 0.00 0.00 0.00 0.02
0.00 0.00 0.00 0.00 0.00 0.00 0.00 0.00 0.00 0.00 0.00 0.00 0.00 0.00 0.00 0.00 0.00 0.00 0.00 0.00 0.00 0.00 0.00 0.00 0.00 0.00 0.00 0.00 0.00 0.00 0.00 0.00 0.00 0.00 0.00 0.00 0.00 0.00 0.00 0.00 0.00 0.00 0.00
0.00 0.00 0.00 0.00 0.00 0.00 0.00 0.00 0.00 0.00 0.00 0.00 0.00 0.00 0.00 0.00 0.00 0.00 0.00 0.00 0.00 0.00 0.00 0.00 0.00 0.00 0.00 0.00 0.00 0.00 0.00 0.00 0.00 0.00 0.00 0.00 0.00 0.00 0.00 0.00 0.00 0.00 0.00
0.00 0.00 0.00 0.00 0.00 0.00 0.00 0.00 0.00 0.00 0.00 0.00 0.00 0.00 0.00 0.00 0.00 0.00 0.00 0.00 0.00 0.00 0.00 0.00 0.00 0.00 0.00 0.00 0.00 0.00 0.00 0.00 0.00 0.00 0.00 0.00 0.00 0.00 0.00 0.00 0.00 0.00 0.00
0.00 0.00 0.00 0.00 0.00 0.00 0.00 0.00 0.00 0.00 0.00 0.00 0.00 0.00 0.00 0.00 0.00 0.00 0.00 0.00 0.00 0.00 0.00 0.00 0.00 0.00 0.00 0.00 0.00 0.00 0.00 0.00 0.00 0.00 0.00 0.00 0.00 0.00 0.00 0.00 0.00 0.00 0.00
0.00 0.00 0.00 0.00 0.00 0.00 0.00 0.00 0.00 0.00 0.00 0.00 0.00 0.00 0.00 0.00 0.00 0.00 0.00 0.00 0.00 0.00 0.00 0.00 0.00 0.00 0.00 0.00 0.00 0.00 0.00 0.00 0.00 0.00 0.00 0.00 0.00 0.00 0.00 0.00 0.00 0.00 0.00
0.00 0.00 0.00 0.00 0.00 0.00 0.00 0.00 0.00 0.00 0.00 0.00 0.00 0.00 0.00 0.00 0.00 0.00 0.00 0.00 0.00 0.00 0.00 0.00 0.00 0.00 0.00 0.00 0.00 0.01 0.00 0.00 0.00 0.00 0.00 0.00 0.00 0.00 0.00 0.00 0.00 0.00 0.00
0.00 0.00 0.00 0.00 0.00 0.00 0.00 0.00 0.00 0.00 0.00 0.00 0.00 0.00 0.00 0.00 0.00 0.00 0.00 0.00 0.00 0.00 0.00 0.00 0.00 0.00 0.00 0.00 0.00 0.00 0.00 0.01 0.01 0.00 0.00 0.00 0.00 0.00 0.01 0.03 0.04 0.03 0.02
0.00 0.00 0.00 0.00 0.00 0.00 0.00 0.00 0.00 0.00 0.00 0.00 0.00 0.00 0.00 0.00 0.00 0.00 0.00 0.00 0.00 0.00 0.00 0.00 0.00 0.00 0.00 0.00 0.00 0.00 0.00 0.00 0.01 0.01 0.00 0.00 0.01 0.02 0.02 0.07 0.14 0.03 0.00
0.00 0.00 0.00 0.00 0.00 0.00 0.00 0.00 0.00 0.00 0.00 0.00 0.00 0.00 0.00 0.00 0.00 0.00 0.00 0.00 0.00 0.00 0.00 0.00 0.00 0.00 0.00 0.00 0.00 0.00 0.00 0.01 0.01 0.01 0.01 0.00 0.01 0.06 0.05 0.13 0.17 0.11 0.04
MSLP
1015.38 1016.00 1016.54 1016.53 1016.56 1016.62 1016.66 1016.82 1016.51 1016.45 1016.26 1016.06 1016.17 1016.41 1016.47 1016.58 1016.66 1016.65 1016.74 1016.87 1016.85 1016.82 1016.69 1016.67 1016.69 1016.62 1016.57 1016.59 1016.55 1016.47 1016.40 1016.24 1016.21 1016.00 1016.01 1015.98 1015.96 1015.92 1015.92 1016.13 1015.84 1015.08 1015.79
1015.60 1016.23 1016.74 1016.77 1016.78 1016.63 1016.64 1016.83 1016.66 1016.46 1016.54 1016.46 1016.41 1016.63 1016.71 1016.82 1016.98 1016.94 1016.88 1016.88 1017.00 1016.94 1016.88 1016.81 1016.76 1016.63 1016.75 1016.62 1016.67 1016.54 1016.47 1016.28 1016.20 1016.08 1016.01 1015.94 1015.89 1015.97 1016.09 1016.17 1015.99 1015.39 1016.06
1016.15 1016.46 1016.81 1017.00 1016.99 1017.03 1017.02 1016.98 1016.90 1016.63 1016.70 1016.76 1016.72 1016.70 1016.81 1016.97 1017.15 1017.26 1017.14 1017.06 1017.13 1017.04 1016.99 1016.88 1016.83 1016.68 1016.66 1016.73 1016.72 1016.64 1016.38 1016.24 1016.15 1016.09 1015.97 1014.93 1014.67 1015.92 1016.11 1016.23 1016.20 1016.22 1016.33
1016.13 1016.57 1016.87 1017.30 1017.26 1017.40 1017.43 1017.36 1017.32 1017.15 1017.19 1017.11 1016.91 1017.00 1017.02 1017.23 1017.51 1017.66 1017.58 1017.45 1017.14 1017.12 1017.05 1017.02 1016.73 1016.62 1016.57 1016.62 1016.71 1016.58 1016.38 1016.21 1016.12 1016.05 1015.28 1014.58 1014.35 1015.55 1015.97 1016.22 1016.34 1016.35 1016.42
1016.43 1017.13 1017.38 1017.59 1017.73 1017.86 1017.75 1017.78 1017.76 1017.61 1017.67 1017.61 1017.67 1017.61 1017.52 1017.64 1017.77 1017.91 1017.95 1017.76 1017.65 1017.57 1017.32 1017.11 1016.94 1016.87 1016.67 1016.54 1016.48 1016.36 1016.37 1016.18 1016.02 1015.76 1014.57 1014.54 1014.67 1014.83 1015.70 1015.97 1016.12 1016.27 1016.35
1016.80 1017.46 1017.84 1018.02 1018.23 1018.23 1018.24 1018.22 1018.18 1018.31 1018.27 1018.14 1018.18 1018.13 1018.18 1018.17 1018.18 1018.26 1018.31 1018.30 1018.13 1018.06 1017.97 1017.76 1017.56 1017.27 1016.97 1016.73 1016.54 1016.39 1016.21 1016.10 1015.95 1014.67 1014.15 1014.44 1014.98 1014.91 1015.47 1015.72 1015.91 1015.90 1016.17
1017.00 1017.65 1018.09 1018.46 1018.54 1018.54 1018.65 1018.69 1018.75 1018.59 1018.52 1018.51 1018.70 1018.68 1018.61 1018.66 1018.71 1018.70 1018.78 1018.71 1018.71 1018.53 1018.28 1018.11 1017.83 1017.51 1017.26 1017.03 1016.76 1016.55 1016.33 1016.10 1015.62 1014.50 1014.22 1014.16 1014.31 1014.89 1015.32 1015.49 1015.56 1015.70 1015.88
1017.21 1017.52 1018.08 1018.94 1018.91 1019.01 1019.16 1019.32 1019.19 1018.96 1018.83 1018.94 1019.12 1019.23 1019.24 1019.27 1019.24 1019.12 1019.10 1019.04 1018.97 1018.76 1018.64 1018.44 1018.19 1017.89 1017.59 1017.25 1016.94 1016.68 1016.52 1016.21 1015.30 1014.23 1013.92 1013.71 1013.89 1014.66 1015.08 1015.20 1015.31 1015.45 1015.53
1017.86 1017.85 1018.22 1018.59 1019.25 1019.56 1019.73 1019.88 1019.58 1019.54 1019.51 1019.50 1019.66 1019.76 1019.80 1019.68 1019.59 1019.45 1019.48 1019.31 1019.30 1019.20 1019.01 1018.80 1018.51 1018.16 1017.76 1017.34 1016.97 1016.68 1016.42 1016.14 1015.50 1014.20 1013.31 1013.27 1013.54 1014.21 1014.75 1014.91 1015.00 1015.05 1015.15
1018.15 1018.20 1018.51 1018.85 1018.90 1019.12 1019.78 1020.17 1020.28 1020.10 1020.01 1020.13 1020.11 1019.96 1019.68 1019.54 1019.56 1019.70 1019.54 1019.77 1019.61 1019.56 1019.33 1019.05 1018.75 1018.35 1017.86 1017.39 1017.03 1016.73 1016.32 1015.52 1014.47 1013.96 1013.84 1013.06 1013.43 1014.07 1014.37 1014.46 1014.56 1014.69 1014.72
1018.34 1018.39 1018.66 1018.85 1019.17 1019.28 1019.77 1020.43 1020.50 1020.47 1020.34 1020.06 1020.04 1020.19 1019.60 1019.53 1019.53 1019.33 1020.05 1020.06 1019.87 1019.74 1019.46 1019.24 1018.94 1018.51 1017.85 1016.99 1016.73 1016.57 1016.12 1014.60 1014.50 1013.96 1013.54 1013.47 1013.81 1013.75 1014.10 1014.13 1014.12 1014.16 1014.23
1018.02 1018.58 1018.81 1019.02 1019.30 1019.50 1019.79 1020.14 1020.27 1020.30 1020.29 1020.42 1020.45 1020.33 1020.12 1020.06 1020.14 1019.88 1019.91 1020.00 1019.77 1019.77 1019.26 1019.04 1018.70 1018.19 1017.54 1016.98 1016.48 1016.27 1015.52 1015.25 1014.92 1013.82 1013.38 1013.68 1013.90 1013.75 1013.69 1013.63 1013.57 1013.58 1013.66
1017.70 1018.38 1018.84 1019.22 1019.60 1019.61 1019.86 1019.89 1019.97 1020.19 1020.39 1020.75 1021.01 1020.82 1020.76 1020.38 1020.31 1019.92 1019.67 1019.54 1019.43 1019.40 1018.89 1018.59 1018.11 1017.85 1018.01 1017.65 1017.09 1016.76 1016.23 1015.77 1014.78 1014.00 1013.36 1013.61 1013.93 1013.89 1013.46 1013.03 1012.89 1012.90 1012.94
1017.71 1018.34 1018.88 1019.28 1019.78 1020.01 1019.79 1019.93 1020.15 1020.27 1020.65 1020.92 1021.41 1021.28 1020.85 1020.44 1020.51 1020.32 1020.05 1019.81 1019.64 1019.44 1019.23 1018.82 1018.43 1018.39 1018.03 1017.68 1017.29 1016.96 1016.62 1016.09 1015.14 1014.37 1013.73 1013.73 1013.85 1013.82 1013.51 1012.87 1012.40 1012.22 1012.19
1017.38 1018.14 1018.65 1019.11 1019.56 1019.91 1019.97 1020.36 1020.67 1020.84 1021.08 1021.34 1021.39 1021.69 1021.22 1020.83 1020.84 1020.59 1020.48 1020.22 1020.11 1019.93 1019.56 1019.14 1018.73 1018.45 1017.98 1017.48 1017.24 1016.85 1016.34 1016.03 1015.61 1014.94 1014.05 1013.60 1013.57 1013.58 1013.35 1012.87 1012.26 1011.60 1011.38
1017.02 1017.84 1018.52 1018.89 1019.28 1019.60 1019.99 1020.55 1020.88 1021.18 1021.44 1021.65 1021.87 1022.08 1022.00 1021.60 1021.59 1021.03 1020.77 1020.55 1020.41 1020.29 1020.04 1019.55 1019.20 1018.68 1018.09 1017.61 1017.07 1016.68 1016.34 1015.85 1015.29 1014.81 1014.13 1013.40 1013.08 1012.83 1012.77 1012.45 1011.98 1011.45 1010.88
1016.60 1017.64 1018.25 1018.86 1019.24 1019.53 1019.94 1020.45 1021.01 1021.38 1021.59 1021.86 1022.12 1022.55 1022.50 1022.36 1022.04 1021.68 1021.15 1020.95 1021.03 1020.82 1020.36 1019.76 1019.29 1018.71 1018.09 1017.51 1016.94 1016.43 1016.00 1015.37 1014.85 1014.45 1013.90 1013.17 1012.37 1011.87 1011.58 1011.43 1011.32 1010.95 1010.48
1016.54 1017.42 1018.28 1018.75 1019.32 1019.56 1020.20 1020.73 1021.31 1021.81 1021.87 1022.10 1022.37 1022.56 1022.82 1022.80 1022.56 1021.82 1021.36 1021.30 1021.63 1020.94 1020.48 1019.95 1019.37 1018.77 1018.19 1017.61 1016.85 1016.22 1015.45 1014.90 1014.30 1013.89 1013.35 1012.85 1012.13 1011.47 1010.67 1010.35 1010.26 1010.13 1009.84
1016.55 1017.49 1018.30 1018.87 1019.35 1019.88 1020.57 1021.13 1021.72 1022.19 1022.13 1022.45 1022.65 1022.70 1023.01 1022.98 1022.83 1022.16 1021.80 1021.73 1021.80 1021.11 1020.68 1020.38 1019.86 1019.33 1018.63 1017.88 1017.18 1016.26 1015.33 1014.39 1013.75 1013.10 1012.64 1012.15 1011.67 1011.24 1010.53 1009.75 1009.40 1009.11 1008.97
1016.62 1017.54 1018.34 1018.93 1019.38 1019.82 1020.49 1021.05 1021.46 1021.91 1022.36 1022.62 1022.71 1022.95 1023.16 1023.06 1022.95 1022.52 1022.08 1022.14 1021.97 1021.38 1021.01 1020.81 1020.43 1019.94 1019.32 1018.41 1017.85 1016.23 1015.14 1014.08 1013.12 1012.63 1012.15 1012.16 1011.89 1011.36 1009.96 1009.27 1008.67 1007.65 1007.67
1016.74 1017.45 1018.07 1018.81 1019.32 1019.66 1020.07 1020.29 1020.74 1021.27 1022.10 1022.50 1022.84 1023.29 1023.31 1023.27 1023.19 1022.84 1022.36 1022.19 1022.24 1021.77 1021.65 1021.29 1020.77 1020.14 1019.30 1019.06 1018.16 1016.84 1014.68 1013.33 1012.66 1012.54 1012.49 1011.90 1011.97 1011.65 1011.07 1009.03 1007.93 1007.26 1006.36
1016.40 1017.23 1017.93 1018.52 1019.19 1019.49 1019.71 1020.05 1020.46 1021.26 1022.03 1022.49 1022.97 1023.35 1023.50 1023.40 1023.31 1022.92 1022.81 1022.55 1022.55 1022.05 1021.73 1021.53 1021.24 1020.76 1020.23 1020.11 1019.58 1017.92 1015.13 1012.85 1012.63 1013.40 1011.83 1011.73 1012.30 1011.88 1010.89 1009.76 1007.41 1006.83 1006.10
1015.90 1016.82 1017.62 1018.25 1018.88 1019.40 1019.90 1020.44 1021.02 1021.63 1022.12 1022.29 1022.55 1022.76 1023.37 1023.53 1023.53 1023.46 1023.31 1022.90 1022.51 1022.18 1021.96 1021.96 1021.69 1021.65 1020.81 1020.51 1020.38 1020.24 1018.40 1016.44 1016.11 1012.89 1012.05 1011.96 1012.68 1012.14 1011.47 1010.31 1008.30 1005.95 1005.76
1015.48 1016.63 1017.39 1018.18 1018.81 1019.44 1019.93 1020.14 1020.38 1020.18 1020.42 1021.57 1022.20 1022.75 1023.18 1023.76 1023.75 1023.73 1023.43 1023.04 1022.67 1022.54 1022.54 1022.30 1022.21 1021.94 1021.67 1021.31 1020.99 1020.49 1020.26 1019.89 1018.18 1014.98 1013.12 1012.84 1012.88 1012.61 1011.94 1010.80 1009.24 1007.99 1007.26
1015.14 1016.37 1017.35 1018.04 1018.72 1019.44 1019.86 1020.18 1020.36 1020.41 1020.98 1021.66 1022.35 1022.93 1023.24 1023.48 1023.76 1023.79 1023.46 1023.10 1022.93 1023.07 1023.06 1022.91 1022.68 1022.28 1022.05 1021.99 1021.49 1020.91 1020.41 1019.79 1018.72 1017.35 1014.92 1013.67 1013.65 1013.27 1012.29 1011.34 1010.19 1009.74 1009.01
1014.80 1016.01 1016.91 1017.79 1018.64 1019.46 1020.05 1020.48 1020.49 1020.74 1021.18 1021.66 1022.25 1022.47 1022.87 1023.06 1023.18 1023.56 1023.29 1023.15 1023.32 1023.39 1023.24 1022.93 1022.85 1022.41 1022.20 1022.13 1021.82 1021.40 1020.76 1020.20 1019.23 1018.25 1016.95 1015.81 1014.80 1013.44 1012.92 1011.86 1011.17 1011.07 1010.26
Thickness
5736 5731 5725 5724 5722 5720 5719 5717 5719 5718 5719 5720 5719 5716 5715 5713 5712 5712 5710 5707 5706 5706 5707 5707 5706 5707 5707 5705 5705 5705 5704 5705 5703 5704 5704 5704 5703 5702 5701 5700 5703 5707 5701
5732 5727 5723 5720 5718 5718 5718 5715 5716 5717 5714 5715 5716 5712 5711 5708 5706 5706 5705 5705 5702 5702 5703 5703 5703 5704 5701 5703 5701 5701 5700 5701 5701 5701 5700 5701 5700 5699 5697 5696 5698 5702 5696
5727 5723 5720 5718 5715 5713 5712 5711 5712 5714 5712 5710 5710 5710 5707 5705 5701 5699 5700 5700 5698 5699 5699 5699 5699 5700 5699 5698 5697 5697 5699 5699 5699 5698 5698 5705 5706 5697 5695 5693 5693 5692 5691
5723 5718 5716 5712 5710 5708 5707 5706 5706 5706 5704 5705 5706 5704 5703 5700 5696 5694 5694 5694 5696 5695 5694 5694 5697 5697 5697 5696 5694 5695 5696 5697 5696 5696 5699 5704 5705 5697 5693 5691 5688 5688 5686
5716 5710 5709 5705 5703 5701 5702 5701 5699 5700 5698 5698 5696 5696 5696 5693 5692 5689 5688 5689 5689 5688 5690 5691 5692 5692 5694 5693 5694 5694 5693 5694 5695 5695 5702 5701 5700 5699 5691 5689 5688 5685 5684
5709 5703 5699 5697 5694 5694 5694 5694 5693 5691 5690 5691 5689 5688 5687 5686 5686 5683 5682 5681 5682 5682 5681 5683 5684 5687 5689 5690 5691 5691 5692 5692 5693 5699 5702 5700 5694 5695 5690 5687 5685 5684 5681
5703 5697 5693 5690 5688 5688 5687 5686 5685 5686 5686 5685 5681 5681 5681 5679 5677 5677 5675 5675 5674 5675 5677 5677 5679 5682 5683 5684 5686 5688 5689 5689 5691 5698 5699 5699 5696 5692 5688 5686 5685 5683 5681
5697 5693 5688 5682 5682 5681 5679 5678 5678 5679 5679 5677 5675 5673 5672 5671 5670 5670 5670 5670 5669 5670 5670 5671 5673 5675 5677 5679 5681 5683 5684 5685 5690 5696 5698 5699 5697 5691 5686 5684 5683 5682 5681
5688 5686 5682 5679 5676 5673 5671 5670 5671 5671 5670 5670 5668 5665 5664 5664 5664 5665 5664 5664 5663 5662 5663 5663 5665 5667 5671 5674 5677 5679 5680 5682 5685 5692 5698 5698 5696 5690 5686 5684 5682 5681 5679
5681 5679 5677 5674 5672 5671 5666 5663 5661 5662 5663 5661 5661 5661 5662 5662 5662 5660 5659 5657 5657 5656 5656 5657 5659 5661 5665 5668 5671 5673 5675 5680 5686 5690 5690 5695 5692 5687 5684 5683 5681 5680 5680
5676 5675 5671 5670 5667 5664 5659 5655 5655 5655 5655 5656 5655 5655 5659 5658 5658 5658 5653 5652 5651 5651 5651 5652 5653 5655 5659 5665 5666 5667 5670 5678 5678 5682 5685 5686 5683 5683 5680 5680 5679 5679 5678
5674 5669 5666 5663 5659 5656 5653 5650 5650 5649 5651 5649 5648 5649 5650 5650 5648 5649 5648 5646 5647 5646 5648 5648 5650 5652 5655 5658 5660 5661 5665 5666 5668 5675 5678 5677 5675 5674 5676 5677 5677 5677 5677
5671 5666 5662 5657 5652 5650 5648 5647 5646 5644 5643 5640 5638 5639 5638 5640 5639 5641 5641 5642 5642 5642 5644 5645 5648 5648 5645 5646 5648 5648 5650 5653 5659 5664 5668 5667 5665 5664 5668 5672 5674 5674 5675
5663 5659 5655 5650 5645 5642 5643 5641 5638 5637 5633 5631 5628 5629 5630 5631 5630 5630 5631 5631 5631 5632 5632 5634 5635 5634 5635 5636 5637 5638 5638 5640 5646 5651 5655 5655 5655 5655 5657 5663 5667 5670 5672
5659 5653 5650 5645 5640 5637 5636 5632 5628 5626 5624 5621 5620 5618 5619 5620 5619 5619 5619 5619 5618 5618 5619 5621 5622 5622 5623 5624 5624 5625 5627 5628 5630 5633 5640 5643 5643 5643 5645 5650 5656 5663 5666
5654 5649 5644 5641 5637 5634 5630 5624 5621 5618 5615 5612 5609 5607 5606 5607 5605 5607 5607 5607 5606 5605 5605 5606 5607 5608 5610 5611 5612 5612 5613 5614 5616 5619 5625 5631 5632 5634 5635 5638 5643 5650 5656
5651 5644 5639 5634 5630 5628 5624 5619 5613 5610 5607 5604 5601 5597 5595 5594 5593 5594 5595 5594 5590 5590 5591 5592 5593 5594 5597 5598 5599 5599 5598 5600 5600 5601 5605 5612 5621 5625 5628 5630 5631 5636 5644
5644 5638 5632 5627 5623 5621 5615 5609 5604 5599 5598 5595 5592 5588 5583 5581 5580 5582 5582 5580 5575 5576 5576 5577 5578 5580 5582 5583 5585 5585 5586 5585 5587 5587 5589 5592 5599 5606 5614 5619 5622 5624 5630
5637 5630 5624 5619 5616 5611 5605 5599 5594 5590 5588 5584 5580 5577 5573 5571 5569 5569 5568 5566 5562 5562 5561 5559 5559 5560 5563 5564 5565 5567 5568 5571 5570 5570 5572 5574 5577 5581 5590 5600 5607 5612 5617
5628 5621 5615 5610 5607 5603 5597 5592 5588 5583 5578 5573 5570 5567 5563 5560 5557 5556 5555 5550 5547 5547 5545 5543 5540 5538 5539 5540 5537 5545 5547 5549 5551 5549 5550 5546 5547 5553 5566 5575 5585 5601 5605
5618 5613 5608 5602 5599 5596 5593 5590 5585 5579 5570 5564 5560 5555 5552 5548 5545 5543 5541 5538 5533 5531 5526 5523 5521 5520 5521 5517 5518 5522 5531 5532 5528 5521 5519 5521 5518 5520 5526 5547 5562 5575 5590
5611 5605 5600 5596 5591 5588 5586 5582 5578 5569 5560 5555 5550 5545 5540 5536 5532 5529 5525 5521 5516 5514 5510 5505 5501 5498 5495 5490 5486 5493 5513 5519 5513 5493 5507 5506 5497 5498 5507 5517 5540 5552 5566
5607 5600 5594 5590 5585 5580 5574 5569 5563 5556 5549 5547 5542 5538 5528 5522 5517 5513 5509 5506 5502 5498 5493 5486 5482 5476 5476 5468 5460 5453 5462 5477 5461 5485 5491 5490 5480 5482 5487 5500 5519 5542 5547
5601 5592 5588 5581 5576 5570 5565 5563 5559 5561 5557 5542 5534 5525 5516 5508 5503 5498 5495 5492 5488 5482 5476 5471 5464 5459 5454 5448 5441 5438 5432 5426 5432 5455 5470 5470 5464 5464 5469 5479 5496 5510 5520
5593 5584 5578 5573 5568 5560 5555 5552 5548 5545 5538 5529 5520 5511 5505 5499 5492 5487 5483 5479 5474 5465 5460 5453 5447 5443 5439 5432 5427 5424 5419 5417 5422 5426 5441 5449 5446 5444 5452 5460 5473 5480 5491
5588 5579 5573 5566 5557 5548 5543 5539 5535 5531 5525 5519 5511 5505 5497 5492 5485 5477 5473 5468 5460 5453 5446 5442 5436 5433 5428 5421 5416 5410 5408 5406 5408 5409 5415 5418 5426 5436 5437 5446 5454 5457 5466